Howell, MI

9:04 AM EDT on August 23, 2017 (GMT -0400)
Livingston County

Weather History for KOZW - May, 2012

Change the Weather History Date:

Friday, May 18, 2012

  Actual Average Record
Temperature  
Mean Temperature 60 °F -  
Max Temperature 75 °F 65 °F 87 °F (1998)
Min Temperature 45 °F 46 °F 33 °F (2002)
Degree Days  
Heating Degree Days 5    
Growing Degree Days 10 (Base 50)    
Moisture  
Dew Point 41 °F    
Average Humidity 53    
Maximum Humidity 90    
Minimum Humidity 26    
Precipitation  
Precipitation 0.00 in - - ()
Sea Level Pressure  
Sea Level Pressure 30.12 in    
Wind  
Wind Speed 4 mph (SSE)    
Max Wind Speed 9 mph    
Max Gust Speed -    
Visibility 10 miles    
Events      
Averages and records for this station are not official NWS values.
T = Trace of Precipitation, MM = Missing Value Source: NWS Daily Summary

Daily Weather History Graph

Daily Weather History Graph

Search for Another Location

Airport or City:

Trip Planner

Search our weather history database for the weather conditions in past years. The results will help you decide how hot, cold, wet, or windy it might be!

Date:

Astronomy

May. 18, 2012 Rise Set
Actual Time 6:10 AM EDT 8:55 PM EDT
Civil Twilight 5:37 AM EDT 9:27 PM EDT
Nautical Twilight 4:56 AM EDT 10:09 PM EDT
Astronomical Twilight 4:09 AM EDT 10:56 PM EDT
Moon 4:41 AM EDT (5/18) 7:01 PM EDT (5/18)
Length of Visible Light 15h 50m
Length of Day
14h 44m
Waning Crescent, 5% of the Moon is Illuminated
May 18
Waning Crescent
May 20
New
May 28
First Quarter
Jun 4
Full
Jun 11
Last Quarter

Hourly Weather History & Observations

Time (EDT) Temp. Dew Point Humidity Pressure Visibility Wind Dir Wind Speed Gust Speed Precip Events Conditions
12:14 AM 51.6 °F 41.5 °F 68% 30.16 in 10.0 mi SSE 3.5 mph - N/A   Clear
12:34 AM 50.7 °F 41.5 °F 71% 30.16 in 10.0 mi Calm Calm - N/A   Clear
12:55 AM 49.1 °F 41.4 °F 75% 30.16 in 10.0 mi SE 4.6 mph - N/A   Clear
1:14 AM 48.4 °F 42.1 °F 79% 30.16 in 10.0 mi SE 5.8 mph - N/A   Clear
1:34 AM 48.2 °F 42.6 °F 81% 30.16 in 10.0 mi SE 4.6 mph - N/A   Clear
1:54 AM 47.5 °F 42.6 °F 83% 30.15 in 10.0 mi SE 5.8 mph - N/A   Clear
2:14 AM 47.8 °F 43.2 °F 84% 30.15 in 10.0 mi SE 4.6 mph - N/A   Clear
2:34 AM 47.1 °F 43.2 °F 86% 30.15 in 10.0 mi SE 4.6 mph - N/A   Clear
3:14 AM 46.4 °F 43.2 °F 88% 30.14 in 10.0 mi Calm Calm - N/A   Clear
3:34 AM 46.9 °F 43.7 °F 88% 30.13 in 10.0 mi SSE 4.6 mph - N/A   Clear
3:54 AM 46.9 °F 43.7 °F 88% 30.13 in 10.0 mi Calm Calm - N/A   Clear
4:14 AM 47.3 °F 43.9 °F 88% 30.14 in 10.0 mi Calm Calm - N/A   Clear
4:34 AM 47.1 °F 43.5 °F 87% 30.13 in 10.0 mi Calm Calm - N/A   Clear
4:54 AM 46.6 °F 43.5 °F 89% 30.14 in 10.0 mi Calm Calm - N/A   Clear
5:15 AM 46.8 °F 43.3 °F 88% 30.14 in 10.0 mi Calm Calm - N/A   Clear
5:34 AM 45.1 °F 42.3 °F 90% 30.14 in 10.0 mi Calm Calm - N/A   Clear
5:54 AM 46.2 °F 43.2 °F 89% 30.14 in 10.0 mi Calm Calm - N/A   Clear
6:15 AM 45.3 °F 42.3 °F 89% 30.13 in 10.0 mi Calm Calm - N/A   Clear
6:34 AM 45.9 °F 43.0 °F 90% 30.13 in 10.0 mi Calm Calm - N/A   Clear
6:54 AM 45.5 °F 42.8 °F 90% 30.14 in 10.0 mi Calm Calm - N/A   Clear
7:15 AM 46.9 °F 43.9 °F 89% 30.15 in 10.0 mi Calm Calm - N/A   Clear
7:34 AM 48.6 °F 45.0 °F 87% 30.15 in 10.0 mi Calm Calm - N/A   Clear
7:54 AM 50.0 °F 46.0 °F 86% 30.16 in 10.0 mi Calm Calm - N/A   Clear
8:14 AM 52.2 °F 45.5 °F 78% 30.17 in 10.0 mi SSE 3.5 mph - N/A   Clear
8:34 AM 52.3 °F 45.1 °F 76% 30.17 in 10.0 mi SE 3.5 mph - N/A   Clear
8:54 AM 55.2 °F 45.0 °F 68% 30.17 in 10.0 mi SSE 5.8 mph - N/A   Clear
9:14 AM 57.6 °F 43.9 °F 60% 30.17 in 10.0 mi SSE 8.1 mph - N/A   Clear
9:34 AM 59.2 °F 43.5 °F 56% 30.17 in 10.0 mi SSE 6.9 mph - N/A   Clear
9:54 AM 60.6 °F 43.0 °F 52% 30.17 in 10.0 mi SSE 6.9 mph - N/A   Clear
10:14 AM 61.5 °F 43.0 °F 51% 30.17 in 10.0 mi South 5.8 mph - N/A   Clear
10:34 AM 62.6 °F 42.6 °F 48% 30.17 in 10.0 mi SSE 6.9 mph - N/A   Clear
10:54 AM 63.3 °F 41.2 °F 44% 30.17 in 10.0 mi SE 5.8 mph - N/A   Clear
11:14 AM 64.2 °F 41.2 °F 43% 30.16 in 10.0 mi Calm Calm - N/A   Clear
11:35 AM 65.5 °F 42.4 °F 43% 30.16 in 10.0 mi SE 5.8 mph - N/A   Clear
11:54 AM 66.4 °F 41.0 °F 40% 30.15 in 10.0 mi SE 3.5 mph - N/A   Clear
12:14 PM 66.9 °F 39.7 °F 37% 30.15 in 10.0 mi South 5.8 mph - N/A   Clear
12:35 PM 68.2 °F 40.3 °F 36% 30.15 in 10.0 mi South 4.6 mph - N/A   Clear
12:54 PM 69.3 °F 39.9 °F 34% 30.15 in 10.0 mi Calm Calm - N/A   Clear
1:14 PM 70.3 °F 38.8 °F 32% 30.14 in 10.0 mi ESE 4.6 mph - N/A   Clear
1:34 PM 71.2 °F 40.8 °F 33% 30.13 in 10.0 mi SE 4.6 mph - N/A   Clear
1:54 PM 72.3 °F 41.9 °F 33% 30.13 in 10.0 mi SSE 8.1 mph - N/A   Clear
2:14 PM 72.9 °F 41.9 °F 33% 30.12 in 10.0 mi SSW 3.5 mph - N/A   Clear
2:34 PM 73.8 °F 42.8 °F 33% 30.12 in 10.0 mi South 3.5 mph - N/A   Clear
2:54 PM 73.8 °F 41.9 °F 32% 30.12 in 10.0 mi SE 5.8 mph - N/A   Clear
3:14 PM 74.3 °F 41.2 °F 30% 30.11 in 10.0 mi South 4.6 mph - N/A   Clear
3:34 PM 74.3 °F 41.4 °F 31% 30.11 in 10.0 mi ESE 3.5 mph - N/A   Clear
3:54 PM 74.8 °F 39.4 °F 28% 30.10 in 10.0 mi SSE 6.9 mph - N/A   Clear
4:14 PM 75.9 °F 40.3 °F 28% 30.10 in 10.0 mi SSE 9.2 mph - N/A   Clear
4:34 PM 75.2 °F 39.6 °F 28% 30.09 in 10.0 mi SSE 6.9 mph - N/A   Clear
4:55 PM 75.6 °F 38.8 °F 27% 30.09 in 10.0 mi SSE 4.6 mph - N/A   Clear
5:14 PM 75.7 °F 39.4 °F 27% 30.08 in 10.0 mi SE 9.2 mph - N/A   Clear
5:34 PM 75.9 °F 40.8 °F 28% 30.08 in 10.0 mi SSE 8.1 mph - N/A   Clear
5:55 PM 75.7 °F 38.5 °F 26% 30.07 in 10.0 mi South 9.2 mph - N/A   Clear
6:14 PM 75.4 °F 38.7 °F 27% 30.07 in 10.0 mi SSE 8.1 mph - N/A   Clear
6:34 PM 74.8 °F 39.6 °F 28% 30.07 in 10.0 mi SE 6.9 mph - N/A   Clear
6:54 PM 74.7 °F 38.3 °F 27% 30.07 in 10.0 mi SSE 8.1 mph - N/A   Clear
7:14 PM 73.4 °F 37.2 °F 27% 30.06 in 10.0 mi SE 6.9 mph - N/A   Clear
7:34 PM 72.3 °F 38.8 °F 30% 30.07 in 10.0 mi SE 5.8 mph - N/A   Clear
7:55 PM 71.2 °F 34.5 °F 26% 30.07 in 10.0 mi SE 5.8 mph - N/A   Clear
8:14 PM 69.1 °F 35.6 °F 29% 30.07 in 10.0 mi SE 8.1 mph - N/A   Clear
8:34 PM 67.6 °F 34.7 °F 30% 30.08 in 10.0 mi SSE 4.6 mph - N/A   Clear
8:54 PM 65.5 °F 34.9 °F 32% 30.08 in 10.0 mi SE 5.8 mph - N/A   Clear
9:14 PM 64.2 °F 34.2 °F 33% 30.08 in 10.0 mi SSE 6.9 mph - N/A   Clear
9:35 PM 63.3 °F 34.2 °F 34% 30.08 in 10.0 mi SSE 5.8 mph - N/A   Clear
9:54 PM 63.0 °F 34.5 °F 35% 30.08 in 10.0 mi SSE 5.8 mph - N/A   Clear
10:14 PM 61.3 °F 36.5 °F 40% 30.09 in 10.0 mi ESE 3.5 mph - N/A   Clear
10:35 PM 62.1 °F 35.1 °F 37% 30.09 in 10.0 mi Calm Calm - N/A   Clear
10:54 PM 62.1 °F 35.2 °F 37% 30.09 in 10.0 mi SE 3.5 mph - N/A   Clear
11:14 PM 59.7 °F 37.4 °F 43% 30.09 in 10.0 mi ESE 4.6 mph - N/A   Clear
11:34 PM 58.3 °F 37.9 °F 47% 30.09 in 10.0 mi SE 3.5 mph - N/A   Clear
11:54 PM 57.6 °F 37.4 °F 47% 30.09 in 10.0 mi SE 3.5 mph - N/A   Clear